Retour au catalogue

METEOR 1-27 DEB

LostPO
NORAD 38533·DEBRIS·🇷🇺 Russia

Lancé Apr 5, 1977 depuis Plesetsk Cosmodrome

Loading…

Prochains Passages (prochaines 24 heures)

TLE

PériméSource: Space-Track

Époque: Jul 11, 2022, 03:47 UTC

1 38533U 77024D   22192.15783265  .00004509  00000-0  16704-2 0  9993
2 38533  81.2389 354.4963 0040003 214.1373 145.7237 14.31730610592514

Suivez METEOR 1-27 DEB en temps réel avec AllMySat

Download on the App Store